Regional Weather Roundup
Issued by NWS Boston, MA

Current Version | Previous Version | Text Only | Print | Product List | Glossary Off
Versions: 1 2 3 4 5 6 7 8 9 10 11 12 13 14 15 16 17 18 19 20 21 22 23 24 25 26 27 28
000 ASUS41 KBOX 150310 RWRBOX REGIONAL WEATHER ROUNDUP NATIONAL WEATHER SERVICE TAUNTON MA 1000 PM EST THU DEC 14 2017 NOTE: "FAIR" INDICATES FEW OR NO CLOUDS BELOW 12,000 FEET WITH NO SIGNIFICANT WEATHER AND/OR OBSTRUCTIONS TO VISIBILITY. MAZALL-150400- EASTERN MASSACHUSETTS CITY SKY/WX TMP DP RH WIND PRES REMARKS BOSTON CLEAR 20 3 48 W15 29.96R WCI 6 BEVERLY CLEAR 19 2 47 W12 29.94R WCI 7 LAWRENCE CLEAR 20 3 48 W13 29.96R WCI 7 BEDFORD CLEAR 17 2 51 W6 29.95R WCI 9 BLUE HILL N/A 15 1 53 W14 29.91R WCI 0 NORWOOD CLEAR 19 3 49 W8 29.98R WCI 9 MARSHFIELD CLEAR 21 3 45 W8G15 29.96R WCI 12 PLYMOUTH CLEAR 19 1 45 W12 29.97R WCI 7 TAUNTON CLEAR 18 2 49 W9 29.98R WCI 7 NEW BEDFORD CLEAR 18 3 52 W12 29.98R WCI 5 $$ MAZALL-150400- CAPE COD AND THE ISLANDS CITY SKY/WX TMP DP RH WIND PRES REMARKS FALMOUTH CLEAR 18 1 49 W10G17 29.98R WCI 6 HYANNIS CLEAR 20 3 48 W7G16 29.95R WCI 11 CHATHAM CLEAR 21 10 62 W7 29.96R WCI 12 PROVINCETOWN CLEAR 24 10 55 NW22G30 29.95R WCI 9 NANTUCKET CLEAR 24 11 57 W14G23 29.97R WCI 12 MARTHAS VNYRD CLEAR N/A N/A N/A W8 29.99R $$ MAZALL-150400- CENTRAL AND WESTERN MASSACHUSETTS CITY SKY/WX TMP DP RH WIND PRES REMARKS WORCESTER CLEAR 12 1 61 W14 29.89S WCI -3 FITCHBURG CLEAR 18 5 57 W8 29.95R WCI 8 ORANGE NOT AVBL SPRINGFIELD CLEAR 17 4 56 NW5 29.99R WCI 10 WESTFIELD CLEAR 17 4 56 NW14 30.00R WCI 3 NORTH ADAMS CLOUDY 16 6 65 W16G23 29.98R WCI 1 PITTSFIELD MOCLDY 11 2 67 SW3 29.94R $$ RIZALL-150400- RHODE ISLAND CITY SKY/WX TMP DP RH WIND PRES REMARKS PROVIDENCE CLEAR 19 5 54 W12 30.00R WCI 7 NEWPORT CLEAR 20 5 52 W15G23 30.00R WCI 6 BLOCK ISLAND CLEAR 22 9 57 NW14G21 30.03R WCI 9 SMITHFIELD CLEAR 15 5 64 W10 29.96R WCI 2 WESTERLY PTCLDY 20 3 48 W5 30.04R WCI 13 $$ CTZALL-150400- CONNECTICUT CITY SKY/WX TMP DP RH WIND PRES REMARKS BRADLEY INTL PTCLDY 17 3 54 VRB5 30.02R WCI 10 HARTFORD CLEAR 20 4 50 NW3 30.04R BRIDGEPORT PTCLDY 22 4 46 W8 30.07R WCI 12 DANBURY CLOUDY 19 1 45 W6 30.05R WCI 11 GROTON PTCLDY 20 4 50 NW9 30.05R WCI 9 NEW HAVEN PTCLDY 22 4 46 NW8 30.06R WCI 12 CHESTER FAIR 18 1 49 NW5 30.02R WCI 11 MERIDEN CLOUDY 11 3 70 CALM 30.05R WILLIMANTIC CLEAR 18 3 52 W6 30.02R WCI 10 OXFORD CLOUDY 14 3 61 NW3 30.01R $$ MEZ002-015-021-024-NHZ003-005-008-011-012-014-VTZ005-008-150400- NORTHERN NEW ENGLAND CITY SKY/WX TMP DP RH WIND PRES REMARKS PORTLAND ME CLEAR 16 1 51 W9 29.88R WCI 4 BANGOR ME CLEAR 9 0 67 W3 29.80R CONCORD NH CLEAR 16 -3 43 W7 29.91R WCI 6 MANCHESTER NH PTCLDY 17 1 49 SW5 29.93R WCI 10 NASHUA NH NOT AVBL PORTSMOUTH NH CLEAR 17 0 46 W9 29.91R WCI 6 JAFFREY NH CLEAR 11 3 70 SW5 29.89R WCI 3 KEENE NH CLEAR 4 2 91 S3 29.95R BURLINGTON VT PTCLDY 13 -3 49 W9 29.96R WCI 1 MT. WASHINGTON BLWGSNOW -17 -17 100 W63 N/A VSB 0 WCI -58 $$ NYZ052-076-150400- EASTERN NEW YORK CITY SKY/WX TMP DP RH WIND PRES REMARKS ALBANY MOCLDY 16 4 59 SW5 30.04R WCI 9 NEW YORK CITY PTCLDY 26 8 46 NW14 30.09R WCI 14 $$ ANZALL-150400- MARINE OBSERVATIONS STATION/POSITION TIME TEMP WIND PRES VSBY WAVE AIR SEA DIR/SP/G HT/PER (UTC) (F) (DEG/KT/KT) (MB) (MI) (FT/S) BOSTON BUOY 0250 25 47 280/ 21/ 27 1013.1R 4/ 4 BUZZARDS BAY 0200 24 310/ 28/ 32 1015.1R NANTUCKET SOUND 0250 25 43 300/ 19/ 25 1014.5R 3/ 4 MASS BAY-STELLWA 0204 25 47 290/ 21/ 27 1012.9R 4/ 4 ISLE OF SHOALS 0200 22 270/ 21/ 24 1012.2R S OF BLOCK IS 0243 53 N/A 8/ 8 $$ ......................KEY......................... SKY/WX - SKY CONDITION/PRESENT WEATHER TMP - TEMPERATURE IN FAHRENHEIT DWPT - DEWPOINT IN FAHRENHEIT RH - RELATIVE HUMIDITY IN PERCENT WIND - DIRECTION AND SPEED IN MPH PRES - MEAN SEA LEVEL PRESSURE IN INCHES OF HG WCI - WIND CHILL INDEX VSB - VISIBILITY IN MILES HX - HEAT INDEX TC - TEMPERATURE IN CELSIUS VRB - VARIABLE WIND DIRECTION N/A - NOT AVAILABLE

USA.gov is the U.S. government's official web portal to all federal, state and local government web resources and services.